Вернуться в каталог

RASSVET-3 17

АктивенPO
NORAD 100083·PAYLOAD·🇷🇺 Russia

Запущен Jul 19, 2026 с Plesetsk Cosmodrome

Loading…

Ближайшие Пролёты (ближайшие 24 часа)

TLE

СвежийSource: Space-Track

Эпоха: Sep 14, 2026, 13:15 UTC

1 A0083U 26165A   26257.55239849  .00138546  63186-5  29699-3 0  9992
2 A0083  82.2980 166.4866 0019950 198.0757 161.9812 15.98091732  9024

Отслеживайте RASSVET-3 17 в реальном времени с AllMySat

Download on the App Store